Martin State Airport

Airport
ICAO code: 
KMTN
Summary
ICAO Region: 
NAM
Territory: 
Location: 
Baltimore/Middle River, Maryland,
Coordinates: 
Aerial View: 
39° 19' 31.994" N, 76° 24' 49.993" W
Airport WX: 
Cumulonimbus
Metar
Observation
KMTN 210455Z AUTO 32008KT 10SM CLR M03/M15 A3043 RMK AO2
Station
Baltimore / Martin
Date/Time
2022-01-21 04:55:00
Wind direction
320°
Wind speed
08 kts
Lowest cloud amount
n/a
Temperature
-3°C
Dew point
-15°C
Humidity
38%
Weather condition
n/a

Description

Martin State Airport is a joint civil-military (ANG) public use airport located 17 km east of the central business district of Baltimore, in Baltimore County, Maryland.

Climatology

Humid “subtropical” climate (Köppen climate classification Cfa) - characterized by hot, humid summers and cool winters. Significant amounts of precipitation occur in all seasons in most areas. Winter rainfall (and sometimes snowfall) is associated with large storms that the westerlies steer from west to east. Most summer rainfall occurs during thunderstorms and occasional tropical storms (hurricanes).

Runways

Designator Length Width Surface Rops
15/33 2132 55 CON Yes/Yes
Airport map: 
Aerial View: 

SKYbrary Partners:

Safety knowledge contributed by: